STARLINK-11283, 60993

Orbit data source: Space-Track

STARLINK-11283, 60993 is a payload satellite owned by SpaceX/Seattle (US) in LEO that was launched on Thu, 05 Sep 2024 UTC via an FALCON 9 launch vehicle from the Air Force Eastern Test Range (AFETR). Payload-class satellites include a variety of spacecraft equipped with specific instruments for various scientific and technological missions. These include communications satellites like Starlink; space stations such as the ISS; scientific satellites like the Hubble; Earth observation satellites from companies like Planet Labs, Umbra, and HawkEye 360; GPS; miniature CubeSats for education and research; and military/defense satellites.

Loading next visibility...
Identifier
60993, 2024-158D
Orbit
LEO
Country
Flag of USUS
Related business
Manufacturer
SpaceX/Seattle
Mission
Operational Commercial Communications
Bus & Motor
STARLINK V2MD, Unknown motor
Mass
960 kg wet, ~910 kg dry
Launch date (UTC)
2024-09-05 (2 years ago)
Launch vehicle
FALCON 9
Launch site
Air Force Eastern Test Range (AFETR)
Object type
Payload
Rocket body
Debris
Shape & HBR
Box + 2 Pan, 18.1 m
Radar Cross Section
36.964 m², Large (>1 m²)

Expand to show TLE details & history
Last TLE update: 18 hours ago

TLE from 18 hours ago
0 STARLINK-11283
1 60993U 24158D   26255.71100214 -.00000248  00000-0  28039-5 0  9995
2 60993  53.1594  79.6698 0000670  74.1654 285.9438 15.69705761116960
Epoch: 2026-09-12T17:03Z
TLE epoch observation values (Epoch: 2026-09-12T17:03:50.584Z)
Latitude
-0.00002°
Longitude
-168.00707°
Altitude
360.53 km
Speed
7.694 km/s
True Right ascension
05h 18m 40s
True Declination
0° 00' 00"
Sunlit
Object was in daylight at epoch
Visualization orbit readout
Latitude
Unknown
Longitude
Unknown
Altitude
Unknown
Speed
Unknown
Apparent Right ascension
Unknown
Apparent Declination
Unknown
Sunlit
N/A
Visualization observer readout
Local Sidereal Time
03:54:06
Azimuth
Unknown
Elevation
Unknown
Doppler factor
Unknown
Orbital elements
Apogee altitude
360.451 km
Perigee altitude
359.548 km
Semi-major axis
6,738.137 km
Eccentricity
0.00007
Inclination
53.1594°
RAAN
79.6698°
Arg. of periapsis
74.1654°
True anomaly
285.93642°
Mean anomaly
285.9438°
Eccentric anomaly
285.94011°
Mean motion
3.92404 °/min
Orbital period
91.74 mins
BSTAR
0.0000028039
Loading maneuver chart data...
Computing Atmospheric mass density...
Loading historical data...
Loading historical data...
Loading historical data...
Loading historical data...
Loading historical data...
Loading historical data...
Loading historical data...

Documentation

Showing up to 5 results
|